IRIDIUM 33 DEB, 33887

Orbit data source: Space-Track

IRIDIUM 33 DEB, 33887 is space debris in LEO originally from a launch on Sun, 14 Sep 1997 UTC launched from the Tyuratam Missile And Space Complex (TTMTR). The debris from Iridium 33, an American commercial communications satellite, has been tracked extensively since its accidental collision with the defunct Russian satellite Cosmos 2251 in 2009. This event, occurring at high speed in low Earth orbit (LEO), generated thousands of pieces of space debris, significantly increasing the risk of further collisions. The Iridium 33 debris cloud has impacted space traffic management and orbital debris mitigation strategies, making it a subject of ongoing study in space situational awareness.

Loading next visibility...
Identifier
33887, 1997-051BG
Orbit
LEO
Country
Flag of USUS
Related business
Manufacturer
Unknown
Mission
Spacecraft
Bus & Motor
Unknown
Mass
Unknown
Launch date (UTC)
1997-09-14 (28 years ago)
Launch vehicle
Unknown
Launch site
Tyuratam Missile And Space Complex (TTMTR)
Object type
Payload
Rocket body
Debris
Shape & HBR
Unknown shape, 0.2 m
Radar Cross Section
Small (<0.1 m²)

Expand to show TLE details & history
Last TLE update: 1 day ago

TLE from 1 day ago
0 IRIDIUM 33 DEB
1 33887U 97051BG  25306.49875742  .00000564  00000-0  18310-3 0  9994
2 33887  86.3086  20.7229 0006890  30.4424 341.7034 14.37165660875870
Epoch: 2025-11-02T11:58Z
TLE epoch observation values (Epoch: 2025-11-02T11:58:12.641Z)
Latitude
12.051°
Longitude
159.94159°
Altitude
765.497 km
Speed
7.475 km/s
True Right ascension
01h 26m 01s
True Declination
11° 58' 52"
Sunlit
Object was in full shadow at epoch
Visualization orbit readout
Latitude
Unknown
Longitude
Unknown
Altitude
Unknown
Speed
Unknown
Apparent Right ascension
Unknown
Apparent Declination
Unknown
Sunlit
N/A
Visualization observer readout
Local Sidereal Time
15:09:13
Azimuth
Unknown
Elevation
Unknown
Doppler factor
Unknown
Orbital elements
Apogee altitude
769.762 km
Perigee altitude
759.919 km
Semi-major axis
7,142.978 km
Eccentricity
0.00069
Inclination
86.3086°
RAAN
20.7229°
Arg. of periapsis
30.4424°
True anomaly
341.67859°
Mean anomaly
341.7034°
Eccentric anomaly
341.691°
Mean motion
3.59521 °/min
Orbital period
100.13 mins
BSTAR
0.0001831
Loading maneuver chart data...
Computing Atmospheric mass density...
Loading historical data...
Loading historical data...
Loading historical data...
Loading historical data...
Loading historical data...
Loading historical data...
Loading historical data...

Documentation

Showing up to 5 results
|